Weather History for Driggs, ID

Change the Weather History Date:

Monday, April 28, 2014

  Actual Average (KRXE) Record (KRXE)
Temperature  
Mean Temperature 29 °F 47 °F  
Max Temperature 36 °F 60 °F 77 °F (2007)
Min Temperature 22 °F 34 °F 28 °F (2014)
Degree Days  
Heating Degree Days 36 18  
Month to date heating degree days 602  
Since 1 July heating degree days 7531  
Cooling Degree Days 0 0  
Month to date cooling degree days 0  
Year to date cooling degree days 0  
Moisture  
Dew Point 22 °F    
Average Humidity 71    
Maximum Humidity 93    
Minimum Humidity 56    
Precipitation  
Precipitation 0.00 in 0.06 in 0.30 in (1990)
Month to date precipitation 1.38  
Year to date precipitation 4.01  
Sea Level Pressure  
Sea Level Pressure 30.07 in    
Wind  
Wind Speed 7 mph (NNW)    
Max Wind Speed 20 mph    
Max Gust Speed 29 mph    
Visibility 8 miles    
Events Snow    
T = Trace of Precipitation, MM = Missing Value Source: NWS Daily Summary

Daily Weather History Graph

Daily Weather History Graph

Search for Another Location

Airport:

Trip Planner

Search our weather history database for the weather conditions in past years. The results will help you decide how hot, cold, wet, or windy it might be!

Date:

Astronomy

Apr. 28, 2014 Rise Set
Actual Time 6:20 AM MDT 8:23 PM MDT
Civil Twilight 5:49 AM MDT 8:54 PM MDT
Nautical Twilight 5:11 AM MDT 9:33 PM MDT
Astronomical Twilight 4:29 AM MDT 10:15 PM MDT
Moon 6:03 AM MDT (4/28) 8:04 PM MDT (4/28)
Length of Visible Light 15h 05m
Length of Day
14h 02m
Waning Crescent, 0% of the Moon is Illuminated
Apr 28
Waning Crescent
Apr 29
New
May 6
First Quarter
May 14
Full
May 21
Last Quarter

Hourly Weather History & Observations

Time (MDT) Temp. Windchill Dew Point Humidity Pressure Visibility Wind Dir Wind Speed Gust Speed Precip Events Conditions
12:39 AM 30.2 °F 21.9 °F 28.4 °F 93% 29.86 in 2.5 mi WNW 9.2 mph - 0.00 in Snow Light Snow
12:45 AM 30.2 °F 22.6 °F 26.6 °F 86% 29.86 in 3.0 mi WSW 8.1 mph - 0.00 in Snow Light Snow
12:56 AM 30.0 °F 23.2 °F 26.1 °F 85% 29.83 in 10.0 mi SW 6.9 mph - 0.00 in Snow Light Snow
1:56 AM 27.1 °F - 21.0 °F 78% 29.86 in 10.0 mi Calm Calm - 0.00 in   Partly Cloudy
2:56 AM 25.2 °F - 18.1 °F 75% 29.87 in 10.0 mi Calm Calm - N/A   Clear
3:56 AM 25.2 °F 19.5 °F 16.2 °F 69% 29.88 in 10.0 mi NNW 4.6 mph - N/A   Clear
4:56 AM 22.1 °F 15.9 °F 14.0 °F 71% 29.91 in 10.0 mi ENE 4.6 mph - N/A   Mostly Cloudy
5:56 AM 25.2 °F - 16.2 °F 69% 29.95 in 10.0 mi Calm Calm - N/A   Partly Cloudy
6:56 AM 25.2 °F 20.9 °F 16.2 °F 69% 29.99 in 10.0 mi NNE 3.5 mph - N/A   Overcast
7:56 AM 23.0 °F 15.8 °F 15.1 °F 72% 30.03 in 9.0 mi ENE 5.8 mph - N/A   Mostly Cloudy
8:56 AM 27.1 °F 18.9 °F 18.1 °F 69% 30.02 in 8.0 mi ENE 8.1 mph - 0.00 in   Overcast
9:56 AM 30.0 °F 26.5 °F 19.0 °F 64% 30.02 in 9.0 mi ENE 3.5 mph - 0.00 in   Overcast
10:56 AM 32.0 °F 22.5 °F 20.1 °F 62% 30.03 in 9.0 mi NW 12.7 mph - N/A   Overcast
11:56 AM 34.0 °F 24.2 °F 22.1 °F 62% 30.04 in 9.0 mi WNW 15.0 mph 18.4 mph N/A   Mostly Cloudy
12:56 PM 36.0 °F 25.3 °F 25.2 °F 65% 30.04 in 9.0 mi NW 19.6 mph 23.0 mph 0.00 in   Partly Cloudy
1:56 PM 36.9 °F 27.8 °F 26.1 °F 65% 30.05 in 10.0 mi West 15.0 mph 19.6 mph N/A   Partly Cloudy
2:56 PM 34.0 °F 28.8 °F 21.0 °F 59% 30.10 in 6.0 mi West 5.8 mph - 0.00 in Snow Light Snow
3:06 PM 33.8 °F 25.3 °F 23.0 °F 65% 30.11 in 2.5 mi NW 11.5 mph 21.9 mph 0.00 in Snow Light Snow
3:22 PM 33.8 °F 27.0 °F 24.8 °F 70% 30.11 in 8.0 mi WNW 8.1 mph - 0.00 in   Mostly Cloudy
3:43 PM 33.8 °F 25.3 °F 23.0 °F 65% 30.13 in 3.0 mi NW 11.5 mph 28.8 mph 0.00 in Snow Light Snow
3:56 PM 32.9 °F 24.1 °F 20.1 °F 59% 30.14 in 2.0 mi NNW 11.5 mph 25.3 mph 0.00 in Snow Light Snow
4:03 PM 33.8 °F 26.4 °F 19.4 °F 56% 30.13 in 3.0 mi North 9.2 mph 17.3 mph 0.00 in Snow Light Snow
4:56 PM 34.0 °F 28.0 °F 25.2 °F 70% 30.17 in 9.0 mi East 6.9 mph - 0.00 in   Overcast
5:22 PM 35.6 °F 27.1 °F 24.8 °F 65% 30.17 in 2.5 mi North 12.7 mph 19.6 mph 0.00 in Snow Light Snow
5:31 PM 33.8 °F 27.7 °F 21.2 °F 60% 30.18 in 6.0 mi NNW 6.9 mph 19.6 mph 0.00 in Snow Light Snow
5:56 PM 32.9 °F 27.5 °F 23.0 °F 67% 30.20 in 10.0 mi SW 5.8 mph - 0.00 in   Scattered Clouds
6:56 PM 32.9 °F 24.1 °F 23.0 °F 67% 30.22 in 10.0 mi SW 11.5 mph - N/A   Clear
7:56 PM 32.0 °F 25.6 °F 25.2 °F 76% 30.26 in 9.0 mi South 6.9 mph - N/A   Mostly Cloudy
8:56 PM 31.1 °F 25.4 °F 25.2 °F 79% 30.27 in 10.0 mi SE 5.8 mph - N/A   Mostly Cloudy
9:56 PM 29.1 °F 22.1 °F 25.2 °F 85% 30.29 in 10.0 mi NE 6.9 mph - N/A   Mostly Cloudy
10:56 PM 29.1 °F 25.4 °F 24.1 °F 81% 30.30 in 10.0 mi NE 3.5 mph - N/A   Clear
11:56 PM 27.1 °F - 23.0 °F 84% 30.32 in 10.0 mi Calm Calm - N/A   Clear